Date,TemperatureHighF,TemperatureAvgF,TemperatureLowF,DewpointHighF,DewpointAvgF,DewpointLowF,HumidityHigh,HumidityAvg,HumidityLow,PressureMaxIn,PressureMinIn,WindSpeedMaxMPH,WindSpeedAvgMPH,GustSpeedMaxMPH,PrecipitationSumIn
2013-1-1,22,11,5,10,5,2,86,78,59,30.25,30.14,3,1,9,0.00
2013-1-2,34,21,8,23,14,3,85,74,56,30.22,30.07,4,1,11,0.00
2013-1-3,28,24,14,25,20,11,90,86,81,30.26,30.07,3,2,8,0.00
2013-1-4,33,23,12,24,18,9,89,81,68,30.23,30.13,6,3,14,0.00
2013-1-5,37,29,17,34,26,15,96,91,76,30.24,29.89,5,2,12,0.10
2013-1-6,36,25,17,34,22,15,94,86,76,30.31,29.88,4,2,12,0.01
2013-1-7,42,28,15,29,23,13,94,81,55,30.30,30.07,7,2,17,0.00
2013-1-8,42,34,24,34,30,22,95,84,73,30.12,29.97,6,2,12,0.00
2013-1-9,44,36,27,34,30,25,92,77,55,30.46,29.96,6,3,15,0.00
2013-1-10,49,35,24,39,30,23,98,85,51,30.48,29.85,2,0,4,0.60
2013-1-11,50,46,39,49,46,39,99,97,93,29.85,29.62,5,2,11,0.42
2013-1-12,52,38,26,48,34,23,93,84,76,29.97,29.63,7,3,12,0.00
2013-1-13,26,21,14,24,16,8,92,81,74,30.23,29.84,5,2,13,0.00
2013-1-14,28,17,10,15,10,7,89,76,54,30.45,30.23,3,1,8,0.01
2013-1-15,34,19,10,20,14,8,93,80,52,30.44,30.12,3,0,8,0.03
2013-1-16,35,28,14,32,22,12,94,80,60,30.12,29.81,6,2,14,0.00
2013-1-17,34,24,18,30,15,10,87,69,45,30.40,30.06,4,1,11,0.00
2013-1-18,44,33,18,34,26,15,89,78,66,30.42,29.86,9,4,26,0.04
2013-1-19,48,40,22,38,32,10,81,73,53,29.93,29.67,11,4,22,0.00
2013-1-20,22,15,11,11,5,2,73,63,50,30.30,29.93,8,3,19,0.00
2013-1-21,13,8,3,6,-2,-6,80,65,49,30.30,30.14,6,3,13,0.00
2013-1-22,13,6,-2,0,-3,-7,78,65,51,30.42,30.30,4,2,9,0.00
2013-1-23,20,15,9,17,8,0,86,72,61,30.40,30.12,7,2,20,0.00
2013-1-24,22,13,4,13,4,-3,75,67,49,30.67,30.37,5,1,18,0.00
2013-1-25,30,23,17,21,16,8,89,75,59,30.38,29.95,5,2,12,0.00
2013-1-26,26,24,15,18,16,10,77,70,58,30.38,30.19,1,0,5,0.04
2013-1-27,36,30,24,36,26,16,98,86,72,30.36,29.85,3,1,11,0.07
2013-1-28,47,40,36,46,39,35,99,95,87,29.92,29.74,4,1,10,0.29
2013-1-29,60,52,38,59,51,38,99,97,87,29.75,29.38,4,2,11,0.93
2013-1-30,38,31,19,37,29,15,98,94,85,29.62,29.20,7,3,21,0.41
2013-1-31,19,12,3,15,7,-1,88,81,73,30.19,29.62,6,4,14,0.00
2013-2-1,13,5,-2,11,0,-6,91,78,65,30.38,30.17,4,2,12,0.00
2013-2-2,20,14,7,19,10,4,94,85,70,30.17,30.03,5,1,17,0.00
2013-2-3,23,17,10,18,13,7,93,83,69,30.07,29.96,4,1,11,0.03
2013-2-4,25,18,7,20,15,3,93,86,75,30.02,29.88,5,1,15,0.00
2013-2-5,30,22,6,28,18,3,93,87,76,30.10,29.81,4,2,11,0.00
2013-2-6,39,26,10,33,22,8,96,85,67,30.24,30.07,2,1,8,0.10
2013-2-7,37,34,25,35,32,23,98,95,89,30.08,29.86,5,1,14,0.34
2013-2-8,27,23,18,23,21,17,96,90,83,30.40,30.00,6,2,17,0.02
2013-2-9,32,26,22,28,24,21,95,90,83,30.40,30.23,4,2,10,0.01
2013-2-10,44,41,36,43,39,35,99,95,74,29.85,29.43,8,3,15,0.21
2013-2-11,42,32,27,35,27,22,91,82,76,30.01,29.45,12,6,22,0.00
2013-2-12,33,26,23,25,22,20,96,84,70,30.09,29.89,5,2,10,0.00
2013-2-13,44,33,19,34,29,18,98,86,64,29.89,29.69,3,1,6,0.00
2013-2-14,39,36,31,35,31,26,93,81,65,29.97,29.58,5,3,14,0.00
2013-2-15,32,25,18,28,16,10,86,69,50,30.19,29.96,4,2,14,0.00
2013-2-16,21,15,9,12,8,5,88,73,54,30.21,30.15,3,1,13,0.00
2013-2-17,35,20,6,22,13,4,91,73,50,30.23,29.95,3,1,7,0.00
2013-2-18,50,37,24,45,32,22,97,83,72,29.95,29.43,6,3,11,0.45
2013-2-19,24,14,9,22,10,5,91,85,80,30.22,29.55,6,4,14,0.00
2013-2-20,26,14,7,16,9,2,91,79,64,30.41,30.22,4,1,11,0.08
2013-2-21,28,23,12,26,20,9,95,88,85,30.42,29.97,3,1,8,0.00
2013-2-22,35,29,26,31,27,24,95,92,86,29.97,29.77,3,2,9,0.03
2013-2-23,30,26,19,26,21,16,92,83,70,29.96,29.86,5,2,10,0.00
2013-2-24,43,26,13,28,20,11,94,79,52,30.14,29.96,2,0,4,0.13
2013-2-25,48,31,18,32,25,16,97,80,49,30.16,29.95,2,0,4,0.00
2013-2-26,36,34,32,33,31,28,97,88,77,29.95,29.56,4,2,14,0.00
2013-2-27,36,33,30,33,31,28,96,93,87,29.74,29.55,6,4,16,0.18
2013-2-28,37,33,26,33,29,21,94,86,74,30.09,29.73,7,4,20,0.12
2013-3-1,27,26,24,23,21,19,88,84,79,30.24,30.07,7,4,17,0.00
2013-3-2,30,20,11,20,14,9,92,78,59,30.24,30.17,5,2,14,0.02
2013-3-3,37,21,9,21,12,6,93,73,42,30.17,30.10,4,1,8,0.02
2013-3-4,37,27,15,28,22,10,87,79,63,30.13,29.99,2,1,6,0.00
2013-3-5,35,31,26,32,29,24,95,91,83,30.04,29.81,5,2,12,0.16
2013-3-6,36,31,27,30,27,25,91,86,77,30.31,30.04,4,2,13,0.25
2013-3-7,42,30,19,29,24,17,93,79,58,30.41,30.29,3,1,5,0.23
2013-3-8,45,29,14,31,24,13,97,82,57,30.47,30.28,3,0,6,0.00
2013-3-9,42,37,29,37,32,24,93,83,74,30.29,29.78,3,1,9,0.11
2013-3-10,46,42,39,44,41,36,99,97,88,29.80,29.57,3,1,6,0.68
2013-3-11,41,37,34,40,36,33,99,98,94,29.60,29.52,4,1,7,0.09
2013-3-19,32,24,15,18,14,10,84,69,49,30.08,29.83,8,6,19,0.00
2013-3-20,24,18,12,14,9,4,79,69,61,30.11,30.03,5,3,15,0.00
2013-3-21,33,22,12,18,14,6,89,70,50,30.08,30.02,4,2,12,0.00
2013-3-22,42,27,15,24,18,11,88,71,43,30.08,30.02,3,1,7,0.00
2013-3-23,47,33,24,29,24,21,90,72,44,30.13,30.02,3,1,8,0.00
2013-3-24,38,33,31,31,28,25,95,83,71,30.05,29.70,8,2,14,0.00
2013-3-25,37,32,28,31,27,23,88,81,71,30.09,29.75,7,3,19,0.02
2013-3-26,45,37,32,30,29,26,87,73,49,30.24,30.08,4,1,14,0.00
2013-3-27,42,36,30,30,27,23,85,69,49,30.31,30.24,3,1,8,0.00
2013-3-28,52,38,28,31,26,23,86,65,36,30.34,30.27,4,1,8,0.00
2013-3-29,58,42,32,33,28,25,78,59,34,30.31,30.21,4,1,10,0.04
2013-3-30,58,45,32,44,35,26,90,69,52,30.22,29.81,10,4,17,0.00
2013-3-31,55,44,35,44,37,24,96,78,52,29.88,29.69,16,7,24,0.00
2013-4-1,40,34,28,24,20,15,73,57,41,30.18,29.88,10,4,18,0.00
2013-4-2,44,33,25,22,19,14,81,60,35,30.31,30.18,10,4,20,0.00
2013-4-3,48,36,23,24,19,14,87,56,26,30.44,30.28,5,2,10,0.00
2013-4-4,60,44,30,38,29,20,79,57,37,30.29,29.95,9,4,16,0.00
2013-4-5,53,42,33,34,30,24,87,63,39,30.21,30.00,8,4,15,0.00
2013-4-6,63,43,36,40,31,25,72,62,43,30.11,29.70,13,6,22,0.00
2013-4-7,61,52,38,43,39,34,84,65,47,29.91,29.84,7,4,10,0.00
2013-4-8,63,51,38,54,47,34,98,86,70,29.93,29.47,13,5,16,0.74
2013-4-9,47,43,40,45,42,39,97,96,92,29.95,29.80,10,6,14,0.25
2013-4-10,41,40,36,40,38,35,97,96,93,29.99,29.80,12,7,18,1.04
2013-4-11,44,40,38,43,40,37,99,97,94,29.84,29.52,15,7,18,0.23
2013-4-12,44,39,36,41,36,33,97,91,81,29.80,29.51,13,7,18,0.03
2013-4-13,44,38,34,33,31,29,88,77,63,29.96,29.79,13,6,17,0.00
2013-4-14,63,47,36,51,39,30,85,74,57,29.97,29.56,11,6,16,0.01
2013-4-15,63,54,42,54,48,40,98,83,49,29.93,29.56,12,5,17,0.30
2013-4-16,59,46,36,41,38,34,95,74,48,30.24,29.91,6,3,11,0.00
2013-4-17,46,43,41,46,40,34,98,90,71,30.25,29.75,10,6,17,1.97
2013-4-18,63,50,39,60,49,35,99,95,82,29.78,29.33,15,5,29,1.22
2013-4-19,41,38,34,37,32,27,91,80,67,29.89,29.40,17,11,24,0.04
2013-4-20,47,38,29,29,24,19,84,60,34,30.38,29.89,6,3,9,0.00
2013-4-21,54,42,32,37,31,26,85,66,44,30.48,30.25,8,4,15,0.00
2013-4-22,68,54,40,45,40,34,80,60,38,30.26,29.97,7,4,11,0.00
2013-4-23,54,47,39,50,44,36,95,90,65,29.98,29.85,7,2,10,0.43
2013-4-24,54,44,36,36,32,28,88,65,38,30.04,29.91,9,4,15,0.00
2013-4-25,53,45,38,39,34,29,89,67,46,30.27,29.98,11,6,17,0.02
2013-4-26,69,53,36,49,41,30,79,63,47,30.27,30.15,11,5,17,0.00
2013-4-27,69,58,44,51,46,42,96,66,41,30.22,29.95,6,2,10,0.00
2013-4-28,70,60,53,57,50,44,87,70,57,29.94,29.75,3,1,6,0.00
2013-4-29,74,63,51,59,54,50,97,76,52,29.83,29.67,7,4,12,0.00
2013-4-30,87,73,61,63,57,52,90,61,31,29.84,29.67,11,7,19,0.00
2013-5-1,85,74,62,60,56,48,82,56,28,30.05,29.84,6,4,10,0.00
2013-5-2,65,52,43,55,46,39,95,80,57,30.19,30.05,8,5,16,0.82
2013-5-3,51,46,40,50,44,39,97,95,93,30.13,29.92,8,5,11,0.23
2013-5-4,71,59,49,58,51,47,95,77,50,29.99,29.90,8,3,11,0.05
2013-5-5,77,62,49,54,48,44,91,64,34,29.99,29.92,7,3,9,0.00
2013-5-6,77,63,49,51,44,39,85,53,27,30.00,29.92,5,2,8,0.00
2013-5-7,82,67,52,49,44,36,79,47,22,30.00,29.90,5,2,7,0.00
2013-5-8,83,68,50,53,47,42,87,52,25,29.97,29.88,4,1,5,0.00
2013-5-9,70,61,48,61,55,47,96,81,62,29.90,29.77,7,2,13,0.46
2013-5-10,51,48,44,48,46,43,97,92,86,29.94,29.75,7,4,12,0.31
2013-5-11,59,49,42,51,40,29,99,74,40,30.01,29.79,10,4,15,0.00
2013-5-12,56,47,37,34,30,25,76,54,31,30.09,30.01,8,4,14,0.00
2013-5-13,66,52,34,41,33,26,93,54,23,30.14,29.91,7,2,10,0.00
2013-5-14,91,73,52,63,51,40,69,49,24,29.91,29.53,7,4,12,0.00
2013-5-15,84,75,62,61,51,42,61,44,25,29.77,29.53,10,4,17,0.00
2013-5-16,87,70,55,54,47,40,78,47,22,29.89,29.76,6,2,10,0.00
2013-5-17,72,64,58,55,48,40,69,57,48,29.98,29.88,7,4,13,0.00
2013-5-18,84,70,54,65,58,47,92,68,45,29.99,29.86,5,2,9,0.00
2013-5-19,89,74,62,67,63,59,92,69,44,29.88,29.65,10,3,22,0.23
2013-5-20,84,75,66,69,63,59,94,69,45,29.68,29.59,9,4,16,0.23
2013-5-21,80,70,62,68,62,58,95,77,51,29.61,29.56,10,4,18,0.01
2013-5-22,74,66,60,65,60,56,97,82,54,29.68,29.54,7,3,14,0.14
2013-5-23,61,54,42,56,48,37,97,82,59,30.25,29.68,9,4,18,0.04
2013-5-24,67,52,36,41,38,34,94,61,33,30.43,30.25,5,2,8,0.00
2013-5-25,59,51,46,45,39,35,78,63,48,30.37,30.27,6,2,10,0.00
2013-5-26,70,57,45,56,46,37,87,69,37,30.27,30.10,6,2,14,0.09
2013-5-27,59,56,52,57,54,47,98,94,84,30.11,29.83,6,4,10,0.03
2013-5-28,78,67,54,73,65,54,99,94,84,29.83,29.63,8,3,11,0.61
2013-5-29,84,74,64,71,67,62,98,81,58,29.88,29.71,6,3,13,0.01
2013-5-30,85,74,64,72,67,62,97,79,60,29.84,29.68,12,5,18,0.54
2013-5-31,75,69,63,69,65,62,98,89,70,29.76,29.64,9,4,16,0.12
2013-6-1,76,69,63,68,65,59,97,87,72,29.67,29.58,7,4,13,0.08
2013-6-2,64,58,50,60,53,47,94,83,63,29.99,29.66,6,2,9,0.00
2013-6-3,72,59,45,54,47,44,98,69,39,30.09,29.98,4,1,6,0.00
2013-6-4,74,63,50,50,47,42,88,59,33,30.13,30.02,7,2,10,0.01
2013-6-5,69,59,55,60,53,47,90,80,59,30.09,29.92,5,3,9,0.24
2013-6-6,64,58,54,59,54,51,96,87,73,29.93,29.85,5,3,9,0.26
2013-6-7,74,62,54,57,50,43,88,68,37,29.94,29.87,5,2,10,0.00
2013-6-8,77,65,49,53,49,44,89,59,36,29.96,29.88,3,1,6,0.00
2013-6-9,81,70,57,63,56,47,93,64,46,29.96,29.74,7,3,16,0.06
2013-6-10,81,71,61,67,64,60,98,78,56,29.81,29.70,6,2,8,0.01
2013-6-11,85,74,61,68,64,59,97,72,49,29.87,29.72,6,2,10,0.00
2013-6-12,88,75,68,73,67,64,92,78,58,29.87,29.53,5,2,16,0.29
2013-6-13,81,73,60,63,59,54,89,64,45,30.00,29.77,6,3,12,0.00
2013-6-14,80,68,54,60,55,51,90,66,45,30.10,29.95,4,2,8,0.00
2013-6-15,81,69,58,71,63,51,96,82,67,30.02,29.78,9,3,16,0.21
2013-6-16,86,76,67,70,62,55,91,65,37,29.87,29.81,9,4,17,0.01
2013-6-17,85,69,60,62,58,56,90,70,39,29.88,29.83,6,2,9,0.00
2013-6-18,67,60,56,53,49,47,76,66,59,30.05,30.01,4,2,7,0.00
2013-6-19,81,70,52,60,53,46,83,56,42,30.10,30.02,5,2,9,0.00
2013-6-20,89,75,58,66,56,41,71,53,38,30.10,29.99,4,2,10,0.00
2013-6-21,77,72,68,69,66,61,97,83,70,30.08,29.75,9,2,17,0.90
2013-6-22,80,73,66,76,70,65,99,91,79,30.06,29.87,11,3,14,1.54
2013-6-23,88,74,68,77,69,66,97,85,57,29.98,29.83,7,2,11,0.11
2013-6-24,83,72,67,74,68,66,98,90,69,30.01,29.77,9,3,13,0.15
2013-6-25,68,67,66,66,66,66,97,96,93,29.91,29.83,5,2,7,0.45
2013-6-26,80,74,70,73,71,69,97,91,78,29.73,29.66,2,0,3,1.44
2013-6-27,89,78,68,75,70,63,99,79,50,29.74,29.63,10,4,20,0.11
2013-6-28,81,72,66,70,64,61,95,76,54,29.67,29.56,8,4,14,0.11
2013-6-29,67,66,65,66,65,64,97,95,93,29.59,29.55,3,1,6,0.13
2013-6-30,78,77,76,55,54,53,46,44,43,29.92,29.90,5,4,10,0.00
2013-7-7,87,78,70,74,71,68,96,81,65,29.93,29.87,4,1,4,0.00
2013-7-8,88,79,72,79,74,70,95,84,70,29.92,29.85,10,4,13,0.25
2013-7-9,87,79,73,79,75,72,98,89,76,29.92,29.78,7,2,11,0.09
2013-7-10,84,77,67,77,67,59,96,74,48,29.95,29.78,6,2,14,0.00
2013-7-11,67,64,61,62,60,59,91,89,84,30.00,29.95,0,0,0,0.00
2013-7-12,85,73,56,60,54,44,92,56,24,30.12,30.03,3,1,7,0.00
2013-7-13,87,73,59,66,60,56,94,67,39,30.12,30.04,5,2,11,0.00
2013-7-14,89,78,65,72,68,62,94,72,51,30.16,30.10,4,2,12,0.00
2013-7-15,94,81,70,77,72,67,91,76,50,30.21,30.14,4,1,9,0.00
2013-7-16,93,83,73,78,75,72,96,79,56,30.23,30.17,5,2,10,0.00
2013-7-17,94,84,74,78,75,72,97,76,54,30.25,30.10,5,2,11,0.00
2013-7-18,94,85,74,78,75,72,97,74,51,30.11,29.87,7,3,16,0.00
2013-7-19,91,85,76,76,74,68,80,70,58,29.75,29.67,10,4,17,0.00
2013-7-20,88,77,64,70,66,62,94,71,43,29.90,29.75,5,2,10,0.00
2013-7-21,86,73,64,72,66,61,93,79,56,29.91,29.79,8,2,18,0.00
2013-7-22,88,76,64,72,67,63,98,77,52,29.84,29.67,5,2,14,0.00
2013-7-23,76,67,59,59,56,55,89,71,49,29.94,29.82,6,2,11,0.00
2013-7-24,76,66,53,59,55,52,98,72,46,30.04,29.94,4,1,12,0.00
2013-7-25,81,68,54,63,59,53,98,75,49,30.06,29.94,5,2,11,0.00
2013-7-26,72,66,60,69,64,59,98,92,75,29.94,29.82,5,2,14,1.02
2013-7-27,63,59,54,59,52,48,97,79,59,29.91,29.83,7,3,14,0.00
2013-7-28,68,60,54,55,53,51,89,77,57,29.99,29.83,8,4,15,0.00
2013-7-29,77,65,53,62,57,52,95,78,56,30.13,29.99,5,2,9,0.00
2013-7-30,74,64,57,65,61,56,98,89,67,30.14,30.04,4,1,9,0.02
2013-7-31,78,70,61,69,66,60,97,86,71,29.95,29.90,4,1,8,0.33
2013-8-1,79,69,60,64,60,55,99,76,45,29.95,29.87,6,2,15,0.01
2013-8-2,83,72,62,71,64,60,96,79,55,29.91,29.80,5,2,10,0.33
2013-8-3,81,70,58,63,58,51,93,68,38,30.07,29.91,5,1,12,0.00
2013-8-4,80,68,55,64,58,52,93,73,39,30.16,30.07,3,1,9,0.00
2013-8-5,73,65,58,66,61,56,96,88,67,30.08,29.83,6,2,15,0.04
2013-8-6,82,74,66,75,71,65,99,91,74,29.85,29.76,4,2,9,0.21
2013-8-7,86,76,65,75,70,63,99,82,54,29.91,29.72,6,2,13,0.00
2013-8-8,80,70,62,66,62,56,98,76,52,29.99,29.90,5,2,11,0.00
2013-8-9,82,71,58,68,62,54,91,75,58,30.01,29.93,6,2,12,0.00
2013-8-10,80,69,58,64,59,56,96,74,47,30.10,30.01,3,1,9,0.00
2013-8-11,79,68,56,69,63,55,99,86,59,30.10,29.98,4,1,13,0.16
2013-8-12,84,73,66,72,68,66,98,86,62,29.99,29.83,5,2,10,0.00
2013-8-13,73,65,53,55,52,49,92,65,45,30.12,29.97,6,2,16,0.00
2013-8-14,76,62,50,58,53,49,98,74,44,30.19,30.10,4,1,9,0.00
2013-8-15,67,60,55,58,55,52,89,85,74,30.13,30.07,1,0,3,0.00
2013-8-16,83,69,55,63,57,53,96,69,39,30.15,30.09,4,1,10,0.00
2013-8-17,83,69,55,64,57,53,99,69,40,30.20,30.12,4,1,9,0.00
2013-8-18,84,70,55,66,59,53,99,71,43,30.17,30.05,4,1,7,0.00
2013-8-19,84,71,57,68,62,56,97,76,48,30.07,29.98,6,1,11,0.00
2013-8-20,86,74,62,71,66,61,98,77,54,30.06,29.97,6,2,16,0.00
2013-8-21,89,78,66,73,68,64,95,75,50,30.01,29.89,7,2,16,0.00
2013-8-22,75,71,65,71,68,64,97,92,81,30.08,29.93,13,2,25,0.32
2013-8-23,84,71,59,66,59,54,98,70,40,30.14,30.06,6,2,13,0.01
2013-8-24,85,72,58,70,64,55,98,78,53,30.21,30.12,5,1,10,0.00
2013-8-25,90,77,65,73,67,60,89,73,48,30.18,30.06,7,3,15,0.00
2013-8-26,92,79,68,77,71,65,90,76,55,30.09,29.92,7,3,16,0.00
2013-8-27,95,83,72,78,73,70,95,74,50,29.93,29.76,7,3,18,0.00
2013-8-28,89,80,69,75,72,67,94,78,59,29.98,29.77,6,2,12,0.00
2013-8-29,89,75,65,73,69,64,99,83,54,30.04,29.92,3,1,9,0.00
2013-8-30,96,77,68,79,71,67,98,84,48,29.93,29.66,11,2,19,0.63
2013-8-31,78,72,66,72,69,65,98,90,80,29.83,29.75,4,1,12,0.11
2013-9-1,86,76,64,75,69,62,99,81,66,29.78,29.66,6,2,12,0.01
2013-9-2,76,67,56,65,60,54,97,81,55,29.96,29.77,5,2,10,0.00
2013-9-3,76,63,50,60,55,49,99,79,50,30.07,29.96,5,1,10,0.00
2013-9-4,84,68,53,67,60,52,99,78,48,30.09,30.01,6,2,10,0.00
2013-9-5,78,68,57,66,59,51,97,74,53,30.21,30.07,6,3,13,0.00
2013-9-6,86,71,57,70,62,51,90,74,55,30.18,29.95,5,1,13,0.00
2013-9-7,91,77,65,72,67,63,93,75,45,29.95,29.82,8,2,16,0.00
2013-9-8,75,71,67,70,67,65,94,88,81,29.98,29.89,6,3,14,0.00
2013-9-9,92,79,67,79,73,66,98,82,63,29.91,29.75,4,2,11,0.00
2013-9-10,96,84,71,72,66,60,83,57,32,29.91,29.80,9,4,18,0.00
2013-9-11,85,76,68,73,68,65,92,78,55,30.00,29.90,5,2,12,0.04
2013-9-12,75,66,58,66,57,52,94,74,45,30.06,29.92,5,1,10,0.00
2013-9-13,71,58,46,55,45,39,92,65,32,30.17,30.06,6,2,17,0.00
2013-9-14,73,58,43,51,47,42,99,70,41,30.16,29.98,5,1,10,0.00
2013-9-15,58,56,54,58,54,47,98,92,66,30.17,29.95,6,2,9,1.00
2013-9-16,69,57,47,56,49,44,96,76,48,30.35,30.17,5,3,14,0.00
2013-9-17,72,58,46,58,52,44,98,82,55,30.30,30.07,5,2,11,0.00
2013-9-18,77,66,58,70,62,55,96,89,70,30.07,29.86,5,2,13,0.08
2013-9-19,90,76,68,77,70,65,99,84,55,29.89,29.68,11,3,19,0.95
2013-9-20,73,66,56,68,62,54,97,85,64,29.79,29.68,8,5,19,0.04
2013-9-21,65,56,48,54,50,46,97,81,58,29.92,29.78,5,2,14,0.00
2013-9-22,71,56,43,52,47,42,98,76,43,30.04,29.92,3,1,8,0.00
2013-9-24,75,61,49,56,51,47,94,72,44,30.01,29.90,6,2,13,0.00
2013-9-25,52,51,50,50,50,49,98,95,91,29.94,29.90,3,1,5,0.00
2013-9-26,78,78,77,56,54,53,48,44,42,30.01,30.01,3,2,7,0.01
2013-9-27,55,54,54,54,53,53,97,96,95,30.11,30.08,1,0,3,0.00
2013-9-29,74,62,49,54,47,41,99,62,31,30.03,29.95,4,1,12,0.00
2013-9-30,76,59,45,54,48,44,98,71,33,29.97,29.81,5,1,14,0.00
2013-10-1,82,69,57,66,62,52,98,79,52,29.92,29.81,8,3,19,0.00
2013-10-2,82,66,53,62,51,42,98,65,29,30.06,29.92,5,2,9,0.00
2013-10-3,76,68,60,71,65,52,99,91,74,29.94,29.78,4,1,10,0.19
2013-10-4,71,68,64,70,66,64,99,96,89,29.94,29.82,11,2,13,0.80
2013-10-5,75,68,64,73,67,63,100,97,81,29.89,29.73,7,1,26,0.78
2013-10-6,61,52,46,48,45,42,92,77,51,29.74,29.65,6,3,11,0.01
2013-10-7,69,55,45,51,47,43,96,78,44,30.05,29.73,7,3,13,0.01
2013-10-8,78,59,44,57,48,43,98,72,35,30.15,30.05,5,1,11,0.00
2013-10-9,55,51,48,50,48,46,97,90,81,30.20,30.11,1,0,3,0.00
2013-10-10,73,62,56,56,54,52,88,75,51,30.02,30.00,2,1,7,0.00
2013-10-11,76,65,55,63,56,52,93,75,54,30.02,29.88,5,2,13,0.00
2013-10-12,70,61,47,65,54,43,96,81,46,30.14,29.88,8,2,17,0.30
2013-10-13,65,51,40,46,41,37,96,70,37,30.39,30.14,5,1,11,0.00
2013-10-14,65,51,40,49,44,38,96,78,50,30.39,30.10,7,2,13,0.00
2013-10-15,66,55,48,62,51,44,98,87,79,30.10,29.71,9,3,16,0.26
2013-10-16,53,50,47,50,48,44,96,91,85,29.92,29.78,8,5,15,0.00
2013-10-17,53,48,41,49,46,40,98,93,72,29.90,29.80,7,2,13,0.27
2013-10-18,49,44,37,45,41,36,99,89,75,29.94,29.80,9,3,16,0.00
2013-10-19,55,44,37,42,39,35,97,85,48,29.91,29.74,10,3,14,0.03
2013-10-20,57,46,35,48,42,35,99,87,69,29.85,29.71,8,2,13,0.01
2013-10-21,53,42,32,46,34,27,85,72,56,29.95,29.76,10,5,18,0.00
2013-10-22,43,36,29,36,31,26,96,82,61,29.98,29.91,4,2,7,0.00
2013-10-23,46,36,28,34,30,26,94,80,50,30.02,29.93,8,3,12,0.00
2013-10-24,42,37,31,32,29,25,86,74,56,30.31,30.02,6,3,11,0.01
2013-10-25,53,40,27,35,29,25,94,67,44,30.40,29.99,9,4,16,0.00
2013-10-26,54,46,36,40,33,29,82,61,44,30.06,29.82,9,4,17,0.00
2013-10-27,56,42,29,37,32,28,95,71,44,30.06,29.93,8,2,12,0.00
2013-10-28,40,38,34,34,33,31,90,83,75,30.37,30.04,5,1,8,0.00
2013-10-29,60,46,36,45,40,34,96,80,44,30.36,30.12,5,2,10,0.00
2013-10-30,58,54,48,58,52,44,99,95,84,30.12,29.71,4,2,9,0.54
2013-10-31,62,58,45,62,57,42,99,97,90,29.71,29.21,13,5,18,0.56
2013-11-1,47,45,41,46,43,40,98,95,91,29.73,29.34,10,4,14,0.03
2013-11-2,48,41,36,43,39,35,98,91,71,30.15,29.73,4,1,9,0.01
2013-11-3,54,41,31,42,36,30,99,83,50,30.30,30.14,4,1,9,0.01
2013-11-4,58,48,43,45,41,38,86,75,59,30.23,30.04,8,4,16,0.00
2013-11-6,42,37,33,39,31,28,90,80,73,30.16,30.04,5,4,9,0.47
2013-11-7,41,35,29,36,31,27,92,86,76,30.24,30.16,8,4,12,0.00
2013-11-8,47,38,26,37,32,25,97,81,63,30.32,29.87,10,3,20,0.00
2013-11-9,58,49,39,44,39,28,81,69,56,30.09,29.80,15,9,23,0.00
2013-11-10,50,41,33,35,32,29,86,71,51,30.33,30.09,10,4,14,0.00
2013-11-11,46,36,22,37,30,18,95,80,64,30.54,30.05,9,3,12,0.08
2013-11-12,32,25,18,24,19,15,89,79,64,30.73,30.54,7,3,14,0.10
2013-11-13,42,31,20,24,21,16,86,66,43,30.60,30.14,9,5,18,0.01
2013-11-14,49,40,31,32,28,22,72,63,50,30.14,29.91,8,4,15,0.00
2013-11-15,55,43,35,37,33,28,93,69,47,29.95,29.89,6,3,10,0.00
2013-11-16,59,50,39,57,49,36,98,95,88,29.90,29.51,12,7,19,0.06
2013-11-17,67,54,41,64,52,37,99,93,85,29.68,29.05,20,9,30,1.83
2013-11-18,42,37,28,37,30,25,88,78,61,30.25,29.69,15,8,24,0.00
2013-11-19,44,32,23,31,27,22,96,82,58,30.37,30.25,4,1,7,0.00
2013-11-20,42,37,32,38,33,29,97,85,68,30.26,30.08,9,3,13,0.11
2013-11-21,46,43,39,44,41,38,98,93,87,30.21,30.09,4,1,4,0.00
2013-11-22,41,34,26,40,30,20,95,85,69,30.47,30.20,7,3,11,0.04
2013-11-23,26,21,14,20,13,8,82,70,52,30.73,30.43,6,3,17,0.00
2013-11-24,29,20,11,13,9,7,86,66,42,30.74,30.34,8,4,17,0.00
2013-11-25,23,22,21,16,14,13,75,72,70,30.34,30.26,8,6,14,0.00
2013-12-1,45,35,28,33,29,25,94,81,58,30.10,29.97,4,1,8,0.00
2013-12-2,43,36,28,37,32,27,100,88,67,29.97,29.73,6,2,14,0.04
2013-12-3,44,40,36,44,40,36,100,100,99,29.73,29.65,4,2,11,0.04
2013-12-4,53,47,35,53,47,35,100,99,94,29.71,29.46,11,3,24,0.04
2013-12-5,35,25,19,34,21,14,96,83,74,30.27,29.65,15,9,26,0.00
2013-12-6,20,16,11,14,10,6,87,80,69,30.58,30.25,5,2,12,0.00
2013-12-7,19,12,6,10,6,4,90,79,58,30.73,30.58,5,2,9,0.00
2013-12-8,25,20,11,24,18,8,99,89,75,30.63,29.96,7,2,14,0.00
2013-12-9,24,14,-3,24,11,-6,98,87,71,30.23,29.94,11,6,20,0.02
2013-12-10,22,11,-5,16,6,-7,92,82,67,30.31,30.01,17,6,28,0.00
2013-12-11,20,11,-2,16,6,-6,94,80,57,30.58,30.29,7,3,12,0.00
2013-12-12,21,12,-3,12,7,-7,93,81,69,30.55,30.23,8,3,18,0.00
2013-12-13,31,23,12,29,20,11,95,88,69,30.23,30.12,7,2,11,0.00
2013-12-14,31,28,20,30,26,18,98,94,89,30.12,29.95,8,4,17,0.00
2013-12-15,16,12,9,10,7,4,88,80,72,30.15,30.01,8,5,16,0.00
2013-12-16,16,11,3,15,7,-3,96,83,69,30.19,30.05,5,1,11,0.00
2013-12-17,35,25,16,29,22,15,98,88,73,30.09,29.94,14,7,28,0.01
2013-12-18,34,23,13,26,18,10,93,82,56,30.14,29.81,9,5,20,0.00
2013-12-19,37,30,23,33,29,22,100,95,83,29.94,29.81,7,3,14,0.01
2013-12-20,33,30,26,33,30,26,100,99,98,29.83,29.76,6,3,14,0.00
2013-12-21,33,29,26,33,29,26,100,100,98,29.88,29.60,6,3,13,0.00
2013-12-22,32,27,24,32,26,23,100,96,88,30.12,29.63,5,1,14,0.00
2013-12-23,24,9,-5,24,6,-8,98,90,82,30.47,30.12,0,0,0,0.00
2013-12-24,17,2,-8,15,-1,-10,96,87,73,30.61,30.36,0,0,0,0.00
2013-12-25,26,23,17,24,21,15,97,94,90,30.36,30.10,10,4,20,0.00
2013-12-26,30,19,11,28,17,9,98,91,84,30.28,30.11,11,4,21,0.00
2013-12-27,40,30,15,35,27,14,100,90,80,30.28,30.06,8,4,18,0.01
2013-12-28,43,37,28,37,34,27,100,88,77,30.08,29.77,8,4,16,0.41
2013-12-29,37,25,3,34,22,0,97,88,79,30.23,29.75,9,3,20,0.00
2013-12-30,8,2,-6,3,-3,-9,90,80,65,30.36,30.23,5,2,8,0.00
2013-12-31,10,5,-4,8,3,-6,93,90,83,30.38,30.23,4,1,9,0.00
2014-1-1,19,13,7,17,10,5,94,91,87,30.34,30.26,8,4,15,0.00
2014-1-2,15,7,-6,8,3,-8,92,86,73,30.46,30.22,7,3,17,0.00